Regional Weather Roundup
Issued by NWS State College, PA

Home | Current Version | Previous Version | Text Only | Print | Product List | Glossary On
Versions: 1 2 3 4 5 6 7 8 9 10 11 12 13 14 15 16 17 18 19 20 21 22 23 24 25 26 27 28 29 30 31 32 33 34 35 36 37 38 39 40 41 42 43 44 45 46 47 48 49 50
000
ASUS41 KCTP 302110
RWRCTP

REGIONAL WEATHER ROUNDUP
NATIONAL WEATHER SERVICE STATE COLLEGE PA
500 PM EDT SAT MAY 30 2015

Note: "fair" indicates few or no clouds below 12,000 feet with no
significant weather and/or obstructions to visibility.

* = STATION THAT DOES NOT REPORT PRECIPITATION /E.G. RAIN...SNOW...ETC/
    THUNDER OR FOG.

PAZ002>004-007>009-013>016-020>023-029>032-302200-
WESTERN PENNSYLVANIA

CITY           SKY/WX    TMP DP  RH WIND       PRES   REMARKS
ERIE           PTSUNNY   80  65  59 W7        29.98S
MEADVILLE      PTSUNNY   75  66  73 VRB7      30.01F
FRANKLIN*      PTSUNNY   77  64  65 SW14G24   30.05F
NEW CASTLE     MOCLDY    82  70  67 VRB3      30.03F
BEAVER COUNTY  MOSUNNY   77  68  73 S7        30.04F
BUTLER*        CLOUDY    75  66  73 SW5       30.07F
PITTSBURGH INT LGT RAIN  73  68  84 S7        30.05F
PITTSBURGH     LGT RAIN  75  64  68 SW7       30.05F
INDIANA*       MOSUNNY   72  68  88 NW6       30.11S
LATROBE        PTSUNNY   72  68  88 SW9       30.09R
WASHINGTON CO* PTSUNNY   75  66  73 SW6       30.07F
$$

PAZ004>006-010>012-017>019-024>028-033>037-041-042-045-046-049>053-302200-
CENTRAL PENNSYLVANIA

CITY           SKY/WX    TMP DP  RH WIND       PRES   REMARKS
BRADFORD       TSTM      67  64  90 S10G24    30.07R FOG
DUBOIS         PTSUNNY   73  67  81 SW5       30.08R
CLEARFIELD     MOSUNNY   78  59  51 W21G33    30.06R
JOHNSTOWN      PTSUNNY   77  61  57 SW13      30.11S
ALTOONA        MOSUNNY   80  60  50 S18G26    30.09S
STATE COLLEGE  MOSUNNY   81  64  57 S7        30.04F
WILLIAMSPORT   LGT RAIN  78  68  71 S14       30.02S
SELINSGROVE    LGT RAIN  79  71  76 S7        30.04F
FT INDIANTOWN  MOSUNNY   84  66  54 S9        30.04F
CAPITAL CITY   PTSUNNY   85  64  49 S13       30.04F
HARRISBURG     PTSUNNY   87  65  47 S13G23    30.03F
YORK           MOSUNNY   83  64  52 S9G17     30.06F
$$

PAZ038>040-043-044-047-048-054-055-060>062-067>071-302200-
EASTERN PENNSYLVANIA

CITY           SKY/WX    TMP DP  RH WIND       PRES   REMARKS
SCRANTON       PTSUNNY   84  63  49 SW13      30.04S
MOUNT POCONO   PTSUNNY   78  63  59 S14G24    30.13S
ALLENTOWN      MOSUNNY   87  62  43 S15G23    30.05F
QUAKERTOWN*    PTCLDY    86  66  51 SW9       30.08S
READING        MOSUNNY   86  62  44 S16G26    30.05F
LANCASTER      MOSUNNY   86  66  51 S15       30.06F
COATESVILLE    CLEAR     82  63  51 S8        30.10F
POTTSTOWN      MOSUNNY   84  66  54 S9G18     30.08F
BLUE BELL      MOSUNNY   88  66  48 S8G17     30.07F
DOYLESTOWN     MOSUNNY   83  63  50 S13G20    30.07F
WILLOW GROVE   NOT AVBL
NORTH PHILA    PTSUNNY   86  62  44 SW14G21   30.08F
PHILADELPHIA   MOSUNNY   86  64  47 S16       30.08F
$$



USA.gov is the U.S. government's official web portal to all federal, state and local government web resources and services.